iso_date,epoch_date,Year,Hour,Min,DOY,POS_DOY,Lat,Lon,BP,Ts,Ta,has_bp,has_ts,has_ta,BuoyID,Buoy_Type,Buoy_Owner,Logistics,Hemisphere
2021-09-20T18:00:00Z,1632160800,2021,18,0,263.75,263.75,61.873,-33.381,1002.3,9.08,-999.0,yes,yes,no,300234068442000,BD2VHI,AOML,UNKNOWN,North
2021-09-20T21:00:00Z,1632171600,2021,21,0,263.875,263.875,61.904,-33.345,1000.0,9.18,-999.0,yes,yes,no,300234068442000,BD2VHI,AOML,UNKNOWN,North
2021-09-21T00:00:00Z,1632182400,2021,0,0,264.0,264.0,61.911,-33.296,996.2,9.2,-999.0,yes,yes,no,300234068442000,BD2VHI,AOML,UNKNOWN,North
2021-09-21T03:00:00Z,1632193200,2021,3,0,264.125,264.125,61.892,-33.288,991.7,9.14,-999.0,yes,yes,no,300234068442000,BD2VHI,AOML,UNKNOWN,North
2021-09-21T06:00:00Z,1632204000,2021,6,0,264.25,264.25,61.879,-33.31,990.3,9.21,-999.0,yes,yes,no,300234068442000,BD2VHI,AOML,UNKNOWN,North
2021-09-21T09:00:00Z,1632214800,2021,9,0,264.375,264.375,61.878,-33.29,991.5,9.84,-999.0,yes,yes,no,300234068442000,BD2VHI,AOML,UNKNOWN,North
2021-09-21T12:00:00Z,1632225600,2021,12,0,264.5,264.5,61.87,-33.204,993.5,9.78,-999.0,yes,yes,no,300234068442000,BD2VHI,AOML,UNKNOWN,North
2021-09-21T15:00:00Z,1632236400,2021,15,0,264.625,264.625,61.846,-33.105,995.4,9.64,-999.0,yes,yes,no,300234068442000,BD2VHI,AOML,UNKNOWN,North
2021-09-21T18:00:00Z,1632247200,2021,18,0,264.75,264.75,61.816,-33.038,997.7,9.48,-999.0,yes,yes,no,300234068442000,BD2VHI,AOML,UNKNOWN,North
2021-09-21T21:00:00Z,1632258000,2021,21,0,264.875,264.875,61.8,-32.984,999.5,9.51,-999.0,yes,yes,no,300234068442000,BD2VHI,AOML,UNKNOWN,North
2021-09-22T00:00:00Z,1632268800,2021,0,0,265.0,265.0,61.796,-32.917,1000.6,9.24,-999.0,yes,yes,no,300234068442000,BD2VHI,AOML,UNKNOWN,North
2021-09-22T03:00:00Z,1632279600,2021,3,0,265.125,265.125,61.802,-32.83,999.8,9.21,-999.0,yes,yes,no,300234068442000,BD2VHI,AOML,UNKNOWN,North
2021-09-22T06:00:00Z,1632290400,2021,6,0,265.25,265.25,61.81,-32.761,997.8,9.39,-999.0,yes,yes,no,300234068442000,BD2VHI,AOML,UNKNOWN,North
2021-09-22T09:00:00Z,1632301200,2021,9,0,265.375,265.375,61.81,-32.715,997.8,9.25,-999.0,yes,yes,no,300234068442000,BD2VHI,AOML,UNKNOWN,North
2021-09-22T12:00:00Z,1632312000,2021,12,0,265.5,265.5,61.811,-32.673,999.2,9.23,-999.0,yes,yes,no,300234068442000,BD2VHI,AOML,UNKNOWN,North
2021-09-22T15:00:00Z,1632322800,2021,15,0,265.625,265.625,61.815,-32.622,1000.8,9.2,-999.0,yes,yes,no,300234068442000,BD2VHI,AOML,UNKNOWN,North
2021-09-22T18:00:00Z,1632333600,2021,18,0,265.75,265.75,61.822,-32.595,1001.7,9.22,-999.0,yes,yes,no,300234068442000,BD2VHI,AOML,UNKNOWN,North
2021-09-22T21:00:00Z,1632344400,2021,21,0,265.875,265.875,61.836,-32.585,1002.6,9.22,-999.0,yes,yes,no,300234068442000,BD2VHI,AOML,UNKNOWN,North
2021-09-23T00:00:00Z,1632355200,2021,0,0,266.0,266.0,61.86,-32.59,1000.9,9.18,-999.0,yes,yes,no,300234068442000,BD2VHI,AOML,UNKNOWN,North
2021-09-23T03:00:00Z,1632366000,2021,3,0,266.125,266.125,61.886,-32.607,996.1,9.15,-999.0,yes,yes,no,300234068442000,BD2VHI,AOML,UNKNOWN,North
2021-09-23T06:00:00Z,1632376800,2021,6,0,266.25,266.25,61.915,-32.63,991.0,9.15,-999.0,yes,yes,no,300234068442000,BD2VHI,AOML,UNKNOWN,North
2021-09-23T09:00:00Z,1632387600,2021,9,0,266.375,266.375,61.943,-32.583,989.1,9.18,-999.0,yes,yes,no,300234068442000,BD2VHI,AOML,UNKNOWN,North
2021-09-23T12:00:00Z,1632398400,2021,12,0,266.5,266.5,61.932,-32.52,991.8,9.19,-999.0,yes,yes,no,300234068442000,BD2VHI,AOML,UNKNOWN,North
2021-09-23T15:00:00Z,1632409200,2021,15,0,266.625,266.625,61.885,-32.515,996.1,9.2,-999.0,yes,yes,no,300234068442000,BD2VHI,AOML,UNKNOWN,North
2021-09-23T18:00:00Z,1632420000,2021,18,0,266.75,266.75,61.866,-32.529,997.9,9.18,-999.0,yes,yes,no,300234068442000,BD2VHI,AOML,UNKNOWN,North
2021-09-23T21:00:00Z,1632430800,2021,21,0,266.875,266.875,61.869,-32.518,999.6,9.13,-999.0,yes,yes,no,300234068442000,BD2VHI,AOML,UNKNOWN,North
2021-09-24T00:00:00Z,1632441600,2021,0,0,267.0,267.0,61.869,-32.451,1000.0,9.07,-999.0,yes,yes,no,300234068442000,BD2VHI,AOML,UNKNOWN,North
2021-09-24T03:00:00Z,1632452400,2021,3,0,267.125,267.125,61.85,-32.371,999.9,9.05,-999.0,yes,yes,no,300234068442000,BD2VHI,AOML,UNKNOWN,North
2021-09-24T06:00:00Z,1632463200,2021,6,0,267.25,267.25,61.828,-32.333,999.3,9.08,-999.0,yes,yes,no,300234068442000,BD2VHI,AOML,UNKNOWN,North
2021-09-24T09:00:00Z,1632474000,2021,9,0,267.375,267.375,61.825,-32.331,998.9,9.15,-999.0,yes,yes,no,300234068442000,BD2VHI,AOML,UNKNOWN,North
2021-09-24T12:00:00Z,1632484800,2021,12,0,267.5,267.5,61.823,-32.3,998.5,9.16,-999.0,yes,yes,no,300234068442000,BD2VHI,AOML,UNKNOWN,North
2021-09-24T15:00:00Z,1632495600,2021,15,0,267.625,267.625,61.815,-32.244,997.1,9.18,-999.0,yes,yes,no,300234068442000,BD2VHI,AOML,UNKNOWN,North
2021-09-24T18:00:00Z,1632506400,2021,18,0,267.75,267.75,61.796,-32.205,995.4,9.22,-999.0,yes,yes,no,300234068442000,BD2VHI,AOML,UNKNOWN,North
2021-09-24T21:00:00Z,1632517200,2021,21,0,267.875,267.875,61.777,-32.214,994.9,9.19,-999.0,yes,yes,no,300234068442000,BD2VHI,AOML,UNKNOWN,North
2021-09-25T00:00:00Z,1632528000,2021,0,0,268.0,268.0,61.775,-32.226,993.5,9.18,-999.0,yes,yes,no,300234068442000,BD2VHI,AOML,UNKNOWN,North
2021-09-25T03:00:00Z,1632538800,2021,3,0,268.125,268.125,61.77,-32.18,992.5,9.2,-999.0,yes,yes,no,300234068442000,BD2VHI,AOML,UNKNOWN,North
2021-09-25T06:00:00Z,1632549600,2021,6,0,268.25,268.25,61.755,-32.152,991.9,9.17,-999.0,yes,yes,no,300234068442000,BD2VHI,AOML,UNKNOWN,North
2021-09-25T09:00:00Z,1632560400,2021,9,0,268.375,268.375,61.729,-32.172,992.3,9.19,-999.0,yes,yes,no,300234068442000,BD2VHI,AOML,UNKNOWN,North
2021-09-25T12:00:00Z,1632571200,2021,12,0,268.5,268.5,61.709,-32.209,992.5,9.06,-999.0,yes,yes,no,300234068442000,BD2VHI,AOML,UNKNOWN,North
2021-09-25T15:00:00Z,1632582000,2021,15,0,268.625,268.625,61.69,-32.239,992.8,9.01,-999.0,yes,yes,no,300234068442000,BD2VHI,AOML,UNKNOWN,North
2021-09-25T18:00:00Z,1632592800,2021,18,0,268.75,268.75,61.67,-32.269,994.7,8.87,-999.0,yes,yes,no,300234068442000,BD2VHI,AOML,UNKNOWN,North
2021-09-25T21:00:00Z,1632603600,2021,21,0,268.875,268.875,61.634,-32.312,996.2,8.82,-999.0,yes,yes,no,300234068442000,BD2VHI,AOML,UNKNOWN,North
2021-09-26T00:00:00Z,1632614400,2021,0,0,269.0,269.0,61.587,-32.368,997.4,8.74,-999.0,yes,yes,no,300234068442000,BD2VHI,AOML,UNKNOWN,North
2021-09-26T03:00:00Z,1632625200,2021,3,0,269.125,269.125,61.541,-32.453,998.8,8.72,-999.0,yes,yes,no,300234068442000,BD2VHI,AOML,UNKNOWN,North
2021-09-26T06:00:00Z,1632636000,2021,6,0,269.25,269.25,61.525,-32.547,1000.2,8.97,-999.0,yes,yes,no,300234068442000,BD2VHI,AOML,UNKNOWN,North
2021-09-26T09:00:00Z,1632646800,2021,9,0,269.375,269.375,61.518,-32.609,1001.6,9.06,-999.0,yes,yes,no,300234068442000,BD2VHI,AOML,UNKNOWN,North
2021-09-26T12:00:00Z,1632657600,2021,12,0,269.5,269.5,61.488,-32.683,1002.7,9.1,-999.0,yes,yes,no,300234068442000,BD2VHI,AOML,UNKNOWN,North
2021-09-26T15:00:00Z,1632668400,2021,15,0,269.625,269.625,61.466,-32.775,1004.2,9.12,-999.0,yes,yes,no,300234068442000,BD2VHI,AOML,UNKNOWN,North
2021-09-26T18:00:00Z,1632679200,2021,18,0,269.75,269.75,61.446,-32.845,1005.4,8.99,-999.0,yes,yes,no,300234068442000,BD2VHI,AOML,UNKNOWN,North
2021-09-26T21:00:00Z,1632690000,2021,21,0,269.875,269.875,61.418,-32.92,1007.0,8.91,-999.0,yes,yes,no,300234068442000,BD2VHI,AOML,UNKNOWN,North
2021-09-27T00:00:00Z,1632700800,2021,0,0,270.0,270.0,61.39,-32.967,1008.6,8.92,-999.0,yes,yes,no,300234068442000,BD2VHI,AOML,UNKNOWN,North
2021-09-27T03:00:00Z,1632711600,2021,3,0,270.125,270.125,61.354,-33.007,1009.6,8.91,-999.0,yes,yes,no,300234068442000,BD2VHI,AOML,UNKNOWN,North
2021-09-27T06:00:00Z,1632722400,2021,6,0,270.25,270.25,61.319,-33.036,1011.1,8.87,-999.0,yes,yes,no,300234068442000,BD2VHI,AOML,UNKNOWN,North
2021-09-27T09:00:00Z,1632733200,2021,9,0,270.375,270.375,61.289,-33.068,1012.2,8.81,-999.0,yes,yes,no,300234068442000,BD2VHI,AOML,UNKNOWN,North
2021-09-27T12:00:00Z,1632744000,2021,12,0,270.5,270.5,61.262,-33.086,1013.1,8.85,-999.0,yes,yes,no,300234068442000,BD2VHI,AOML,UNKNOWN,North
2021-09-27T15:00:00Z,1632754800,2021,15,0,270.625,270.625,61.244,-33.1,1014.3,8.87,-999.0,yes,yes,no,300234068442000,BD2VHI,AOML,UNKNOWN,North
2021-09-27T18:00:00Z,1632765600,2021,18,0,270.75,270.75,61.231,-33.093,1014.6,8.87,-999.0,yes,yes,no,300234068442000,BD2VHI,AOML,UNKNOWN,North
2021-09-27T21:00:00Z,1632776400,2021,21,0,270.875,270.875,61.225,-33.086,1015.8,8.81,-999.0,yes,yes,no,300234068442000,BD2VHI,AOML,UNKNOWN,North
2021-09-28T00:00:00Z,1632787200,2021,0,0,271.0,271.0,61.222,-33.073,1016.2,8.85,-999.0,yes,yes,no,300234068442000,BD2VHI,AOML,UNKNOWN,North
2021-09-28T03:00:00Z,1632798000,2021,3,0,271.125,271.125,61.216,-33.062,1016.2,8.86,-999.0,yes,yes,no,300234068442000,BD2VHI,AOML,UNKNOWN,North
2021-09-28T06:00:00Z,1632808800,2021,6,0,271.25,271.25,61.211,-33.037,1015.8,8.84,-999.0,yes,yes,no,300234068442000,BD2VHI,AOML,UNKNOWN,North
2021-09-28T09:00:00Z,1632819600,2021,9,0,271.375,271.375,61.2,-33.005,1015.5,8.91,-999.0,yes,yes,no,300234068442000,BD2VHI,AOML,UNKNOWN,North
2021-09-28T12:00:00Z,1632830400,2021,12,0,271.5,271.5,61.19,-32.999,1015.2,8.96,-999.0,yes,yes,no,300234068442000,BD2VHI,AOML,UNKNOWN,North
2021-09-28T15:00:00Z,1632841200,2021,15,0,271.625,271.625,61.184,-32.992,1013.9,9.07,-999.0,yes,yes,no,300234068442000,BD2VHI,AOML,UNKNOWN,North
2021-09-28T18:00:00Z,1632852000,2021,18,0,271.75,271.75,61.191,-32.962,1011.7,9.04,-999.0,yes,yes,no,300234068442000,BD2VHI,AOML,UNKNOWN,North
2021-09-28T21:00:00Z,1632862800,2021,21,0,271.875,271.875,61.202,-32.92,1010.8,8.91,-999.0,yes,yes,no,300234068442000,BD2VHI,AOML,UNKNOWN,North
2021-09-29T00:00:00Z,1632873600,2021,0,0,272.0,272.0,61.216,-32.901,1009.3,8.83,-999.0,yes,yes,no,300234068442000,BD2VHI,AOML,UNKNOWN,North
2021-09-29T03:00:00Z,1632884400,2021,3,0,272.125,272.125,61.235,-32.88,1008.0,8.77,-999.0,yes,yes,no,300234068442000,BD2VHI,AOML,UNKNOWN,North
2021-09-29T06:00:00Z,1632895200,2021,6,0,272.25,272.25,61.246,-32.876,1007.5,8.77,-999.0,yes,yes,no,300234068442000,BD2VHI,AOML,UNKNOWN,North
2021-09-29T09:00:00Z,1632906000,2021,9,0,272.375,272.375,61.257,-32.881,1008.0,8.79,-999.0,yes,yes,no,300234068442000,BD2VHI,AOML,UNKNOWN,North
2021-09-29T12:00:00Z,1632916800,2021,12,0,272.5,272.5,61.265,-32.89,1008.8,8.85,-999.0,yes,yes,no,300234068442000,BD2VHI,AOML,UNKNOWN,North
2021-09-29T15:00:00Z,1632927600,2021,15,0,272.625,272.625,61.262,-32.906,1009.0,8.93,-999.0,yes,yes,no,300234068442000,BD2VHI,AOML,UNKNOWN,North
2021-09-29T18:00:00Z,1632938400,2021,18,0,272.75,272.75,61.254,-32.907,1009.8,8.9,-999.0,yes,yes,no,300234068442000,BD2VHI,AOML,UNKNOWN,North
2021-09-29T21:00:00Z,1632949200,2021,21,0,272.875,272.875,61.235,-32.89,1010.9,8.86,-999.0,yes,yes,no,300234068442000,BD2VHI,AOML,UNKNOWN,North
2021-09-30T00:00:00Z,1632960000,2021,0,0,273.0,273.0,61.211,-32.871,1011.1,8.85,-999.0,yes,yes,no,300234068442000,BD2VHI,AOML,UNKNOWN,North
2021-09-30T03:00:00Z,1632970800,2021,3,0,273.125,273.125,61.184,-32.832,1010.6,8.87,-999.0,yes,yes,no,300234068442000,BD2VHI,AOML,UNKNOWN,North
2021-09-30T06:00:00Z,1632981600,2021,6,0,273.25,273.25,61.152,-32.772,1010.8,8.86,-999.0,yes,yes,no,300234068442000,BD2VHI,AOML,UNKNOWN,North
2021-09-30T09:00:00Z,1632992400,2021,9,0,273.375,273.375,61.121,-32.709,1011.3,8.82,-999.0,yes,yes,no,300234068442000,BD2VHI,AOML,UNKNOWN,North
2021-09-30T12:00:00Z,1633003200,2021,12,0,273.5,273.5,61.087,-32.64,1011.4,8.85,-999.0,yes,yes,no,300234068442000,BD2VHI,AOML,UNKNOWN,North
2021-09-30T15:00:00Z,1633014000,2021,15,0,273.625,273.625,61.057,-32.579,1011.8,8.85,-999.0,yes,yes,no,300234068442000,BD2VHI,AOML,UNKNOWN,North
2021-09-30T18:00:00Z,1633024800,2021,18,0,273.75,273.75,61.03,-32.524,1012.1,8.82,-999.0,yes,yes,no,300234068442000,BD2VHI,AOML,UNKNOWN,North
2021-09-30T21:00:00Z,1633035600,2021,21,0,273.875,273.875,61.003,-32.462,1012.6,8.74,-999.0,yes,yes,no,300234068442000,BD2VHI,AOML,UNKNOWN,North
2021-10-01T00:00:00Z,1633046400,2021,0,0,274.0,274.0,60.966,-32.443,1012.1,8.69,-999.0,yes,yes,no,300234068442000,BD2VHI,AOML,UNKNOWN,North
2021-10-01T03:00:00Z,1633057200,2021,3,0,274.125,274.125,60.93,-32.437,1011.4,8.65,-999.0,yes,yes,no,300234068442000,BD2VHI,AOML,UNKNOWN,North
2021-10-01T06:00:00Z,1633068000,2021,6,0,274.25,274.25,60.896,-32.431,1010.7,8.69,-999.0,yes,yes,no,300234068442000,BD2VHI,AOML,UNKNOWN,North
2021-10-01T09:00:00Z,1633078800,2021,9,0,274.375,274.375,60.854,-32.409,1010.9,8.71,-999.0,yes,yes,no,300234068442000,BD2VHI,AOML,UNKNOWN,North
2021-10-01T12:00:00Z,1633089600,2021,12,0,274.5,274.5,60.806,-32.398,1011.2,8.74,-999.0,yes,yes,no,300234068442000,BD2VHI,AOML,UNKNOWN,North
2021-10-01T15:00:00Z,1633100400,2021,15,0,274.625,274.625,60.766,-32.397,1011.4,8.78,-999.0,yes,yes,no,300234068442000,BD2VHI,AOML,UNKNOWN,North
2021-10-01T18:00:00Z,1633111200,2021,18,0,274.75,274.75,60.727,-32.386,1011.6,8.72,-999.0,yes,yes,no,300234068442000,BD2VHI,AOML,UNKNOWN,North
2021-10-01T21:00:00Z,1633122000,2021,21,0,274.875,274.875,60.687,-32.36,1011.7,8.56,-999.0,yes,yes,no,300234068442000,BD2VHI,AOML,UNKNOWN,North
2021-10-02T00:00:00Z,1633132800,2021,0,0,275.0,275.0,60.646,-32.315,1010.7,8.55,-999.0,yes,yes,no,300234068442000,BD2VHI,AOML,UNKNOWN,North
2021-10-02T03:00:00Z,1633143600,2021,3,0,275.125,275.125,60.609,-32.262,1009.9,8.52,-999.0,yes,yes,no,300234068442000,BD2VHI,AOML,UNKNOWN,North
2021-10-02T06:00:00Z,1633154400,2021,6,0,275.25,275.25,60.571,-32.217,1009.4,8.51,-999.0,yes,yes,no,300234068442000,BD2VHI,AOML,UNKNOWN,North
2021-10-02T09:00:00Z,1633165200,2021,9,0,275.375,275.375,60.537,-32.171,1009.2,8.5,-999.0,yes,yes,no,300234068442000,BD2VHI,AOML,UNKNOWN,North
2021-10-02T12:00:00Z,1633176000,2021,12,0,275.5,275.5,60.518,-32.126,1008.2,8.62,-999.0,yes,yes,no,300234068442000,BD2VHI,AOML,UNKNOWN,North
2021-10-02T15:00:00Z,1633186800,2021,15,0,275.625,275.625,60.507,-32.078,1006.9,8.68,-999.0,yes,yes,no,300234068442000,BD2VHI,AOML,UNKNOWN,North
2021-10-02T18:00:00Z,1633197600,2021,18,0,275.75,275.75,60.486,-32.051,1005.4,8.66,-999.0,yes,yes,no,300234068442000,BD2VHI,AOML,UNKNOWN,North
2021-10-02T21:00:00Z,1633208400,2021,21,0,275.875,275.875,60.466,-32.062,1005.0,8.86,-999.0,yes,yes,no,300234068442000,BD2VHI,AOML,UNKNOWN,North
2021-10-03T00:00:00Z,1633219200,2021,0,0,276.0,276.0,60.449,-32.089,1005.0,8.78,-999.0,yes,yes,no,300234068442000,BD2VHI,AOML,UNKNOWN,North
2021-10-03T03:00:00Z,1633230000,2021,3,0,276.125,276.125,60.436,-32.097,1004.3,8.79,-999.0,yes,yes,no,300234068442000,BD2VHI,AOML,UNKNOWN,North
2021-10-03T06:00:00Z,1633240800,2021,6,0,276.25,276.25,60.412,-32.116,1003.3,8.7,-999.0,yes,yes,no,300234068442000,BD2VHI,AOML,UNKNOWN,North
2021-10-03T09:00:00Z,1633251600,2021,9,0,276.375,276.375,60.385,-32.144,1003.5,8.71,-999.0,yes,yes,no,300234068442000,BD2VHI,AOML,UNKNOWN,North
2021-10-03T12:00:00Z,1633262400,2021,12,0,276.5,276.5,60.361,-32.154,1003.1,8.69,-999.0,yes,yes,no,300234068442000,BD2VHI,AOML,UNKNOWN,North
2021-10-03T15:00:00Z,1633273200,2021,15,0,276.625,276.625,60.332,-32.146,1003.0,8.64,-999.0,yes,yes,no,300234068442000,BD2VHI,AOML,UNKNOWN,North
2021-10-03T18:00:00Z,1633284000,2021,18,0,276.75,276.75,60.295,-32.121,1003.5,8.65,-999.0,yes,yes,no,300234068442000,BD2VHI,AOML,UNKNOWN,North
2021-10-03T21:00:00Z,1633294800,2021,21,0,276.875,276.875,60.246,-32.104,1004.9,8.71,-999.0,yes,yes,no,300234068442000,BD2VHI,AOML,UNKNOWN,North
2021-10-04T00:00:00Z,1633305600,2021,0,0,277.0,277.0,60.203,-32.083,1006.1,8.92,-999.0,yes,yes,no,300234068442000,BD2VHI,AOML,UNKNOWN,North
2021-10-04T03:00:00Z,1633316400,2021,3,0,277.125,277.125,60.177,-32.051,1006.8,8.9,-999.0,yes,yes,no,300234068442000,BD2VHI,AOML,UNKNOWN,North
2021-10-04T06:00:00Z,1633327200,2021,6,0,277.25,277.25,60.143,-31.986,1007.5,8.8,-999.0,yes,yes,no,300234068442000,BD2VHI,AOML,UNKNOWN,North
2021-10-04T09:00:00Z,1633338000,2021,9,0,277.375,277.375,60.093,-31.925,1008.5,9.09,-999.0,yes,yes,no,300234068442000,BD2VHI,AOML,UNKNOWN,North
2021-10-04T12:00:00Z,1633348800,2021,12,0,277.5,277.5,60.05,-31.909,1009.8,9.08,-999.0,yes,yes,no,300234068442000,BD2VHI,AOML,UNKNOWN,North
2021-10-04T15:00:00Z,1633359600,2021,15,0,277.625,277.625,60.031,-31.902,1010.5,9.02,-999.0,yes,yes,no,300234068442000,BD2VHI,AOML,UNKNOWN,North
2021-10-04T18:00:00Z,1633370400,2021,18,0,277.75,277.75,60.02,-31.861,1011.7,9.06,-999.0,yes,yes,no,300234068442000,BD2VHI,AOML,UNKNOWN,North
2021-10-04T21:00:00Z,1633381200,2021,21,0,277.875,277.875,59.988,-31.803,1012.7,9.1,-999.0,yes,yes,no,300234068442000,BD2VHI,AOML,UNKNOWN,North
2021-10-05T00:00:00Z,1633392000,2021,0,0,278.0,278.0,59.941,-31.792,1013.2,8.76,-999.0,yes,yes,no,300234068442000,BD2VHI,AOML,UNKNOWN,North
2021-10-05T03:00:00Z,1633402800,2021,3,0,278.125,278.125,59.913,-31.815,1013.1,8.91,-999.0,yes,yes,no,300234068442000,BD2VHI,AOML,UNKNOWN,North
2021-10-05T06:00:00Z,1633413600,2021,6,0,278.25,278.25,59.912,-31.832,1012.7,8.92,-999.0,yes,yes,no,300234068442000,BD2VHI,AOML,UNKNOWN,North
2021-10-05T09:00:00Z,1633424400,2021,9,0,278.375,278.375,59.908,-31.823,1012.3,8.97,-999.0,yes,yes,no,300234068442000,BD2VHI,AOML,UNKNOWN,North
2021-10-05T12:00:00Z,1633435200,2021,12,0,278.5,278.5,59.885,-31.8,1011.3,8.97,-999.0,yes,yes,no,300234068442000,BD2VHI,AOML,UNKNOWN,North
2021-10-05T15:00:00Z,1633446000,2021,15,0,278.625,278.625,59.856,-31.822,1010.1,8.89,-999.0,yes,yes,no,300234068442000,BD2VHI,AOML,UNKNOWN,North
2021-10-05T18:00:00Z,1633456800,2021,18,0,278.75,278.75,59.845,-31.887,1008.4,8.89,-999.0,yes,yes,no,300234068442000,BD2VHI,AOML,UNKNOWN,North
2021-10-05T21:00:00Z,1633467600,2021,21,0,278.875,278.875,59.861,-31.932,1007.5,8.88,-999.0,yes,yes,no,300234068442000,BD2VHI,AOML,UNKNOWN,North
2021-10-06T00:00:00Z,1633478400,2021,0,0,279.0,279.0,59.863,-31.954,1007.4,8.73,-999.0,yes,yes,no,300234068442000,BD2VHI,AOML,UNKNOWN,North
2021-10-06T03:00:00Z,1633489200,2021,3,0,279.125,279.125,59.85,-32.009,1005.7,8.64,-999.0,yes,yes,no,300234068442000,BD2VHI,AOML,UNKNOWN,North
2021-10-06T06:00:00Z,1633500000,2021,6,0,279.25,279.25,59.848,-32.111,1004.2,8.69,-999.0,yes,yes,no,300234068442000,BD2VHI,AOML,UNKNOWN,North
2021-10-06T09:00:00Z,1633510800,2021,9,0,279.375,279.375,59.849,-32.207,1002.5,8.71,-999.0,yes,yes,no,300234068442000,BD2VHI,AOML,UNKNOWN,North
2021-10-06T12:00:00Z,1633521600,2021,12,0,279.5,279.5,59.848,-32.276,1000.6,9.0,-999.0,yes,yes,no,300234068442000,BD2VHI,AOML,UNKNOWN,North
2021-10-06T15:00:00Z,1633532400,2021,15,0,279.625,279.625,59.847,-32.323,997.9,9.07,-999.0,yes,yes,no,300234068442000,BD2VHI,AOML,UNKNOWN,North
2021-10-06T18:00:00Z,1633543200,2021,18,0,279.75,279.75,59.837,-32.373,994.8,8.94,-999.0,yes,yes,no,300234068442000,BD2VHI,AOML,UNKNOWN,North
2021-10-06T21:00:00Z,1633554000,2021,21,0,279.875,279.875,59.813,-32.427,991.5,9.04,-999.0,yes,yes,no,300234068442000,BD2VHI,AOML,UNKNOWN,North
2021-10-07T00:00:00Z,1633564800,2021,0,0,280.0,280.0,59.785,-32.469,987.1,9.17,-999.0,yes,yes,no,300234068442000,BD2VHI,AOML,UNKNOWN,North
2021-10-07T03:00:00Z,1633575600,2021,3,0,280.125,280.125,59.762,-32.526,986.4,9.34,-999.0,yes,yes,no,300234068442000,BD2VHI,AOML,UNKNOWN,North
2021-10-07T06:00:00Z,1633586400,2021,6,0,280.25,280.25,59.745,-32.585,987.0,9.28,-999.0,yes,yes,no,300234068442000,BD2VHI,AOML,UNKNOWN,North
2021-10-07T09:00:00Z,1633597200,2021,9,0,280.375,280.375,59.726,-32.623,987.1,9.3,-999.0,yes,yes,no,300234068442000,BD2VHI,AOML,UNKNOWN,North
2021-10-07T12:00:00Z,1633608000,2021,12,0,280.5,280.5,59.703,-32.635,987.7,9.29,-999.0,yes,yes,no,300234068442000,BD2VHI,AOML,UNKNOWN,North
2021-10-07T15:00:00Z,1633618800,2021,15,0,280.625,280.625,59.684,-32.619,986.8,9.38,-999.0,yes,yes,no,300234068442000,BD2VHI,AOML,UNKNOWN,North
2021-10-07T18:00:00Z,1633629600,2021,18,0,280.75,280.75,59.668,-32.616,986.5,9.4,-999.0,yes,yes,no,300234068442000,BD2VHI,AOML,UNKNOWN,North
2021-10-07T21:00:00Z,1633640400,2021,21,0,280.875,280.875,59.646,-32.619,985.3,9.43,-999.0,yes,yes,no,300234068442000,BD2VHI,AOML,UNKNOWN,North
2021-10-08T00:00:00Z,1633651200,2021,0,0,281.0,281.0,59.654,-32.61,985.5,9.4,-999.0,yes,yes,no,300234068442000,BD2VHI,AOML,UNKNOWN,North
2021-10-08T03:00:00Z,1633662000,2021,3,0,281.125,281.125,59.69,-32.551,987.9,9.37,-999.0,yes,yes,no,300234068442000,BD2VHI,AOML,UNKNOWN,North
2021-10-08T06:00:00Z,1633672800,2021,6,0,281.25,281.25,59.71,-32.498,989.1,9.29,-999.0,yes,yes,no,300234068442000,BD2VHI,AOML,UNKNOWN,North
2021-10-08T09:00:00Z,1633683600,2021,9,0,281.375,281.375,59.715,-32.494,990.0,9.11,-999.0,yes,yes,no,300234068442000,BD2VHI,AOML,UNKNOWN,North
2021-10-08T12:00:00Z,1633694400,2021,12,0,281.5,281.5,59.71,-32.516,990.9,9.32,-999.0,yes,yes,no,300234068442000,BD2VHI,AOML,UNKNOWN,North
2021-10-08T15:00:00Z,1633705200,2021,15,0,281.625,281.625,59.707,-32.522,991.2,9.35,-999.0,yes,yes,no,300234068442000,BD2VHI,AOML,UNKNOWN,North
2021-10-08T18:00:00Z,1633716000,2021,18,0,281.75,281.75,59.697,-32.505,991.7,9.34,-999.0,yes,yes,no,300234068442000,BD2VHI,AOML,UNKNOWN,North
2021-10-08T21:00:00Z,1633726800,2021,21,0,281.875,281.875,59.672,-32.481,994.0,9.37,-999.0,yes,yes,no,300234068442000,BD2VHI,AOML,UNKNOWN,North
2021-10-09T00:00:00Z,1633737600,2021,0,0,282.0,282.0,59.637,-32.448,996.7,9.42,-999.0,yes,yes,no,300234068442000,BD2VHI,AOML,UNKNOWN,North
2021-10-09T03:00:00Z,1633748400,2021,3,0,282.125,282.125,59.611,-32.391,998.7,9.43,-999.0,yes,yes,no,300234068442000,BD2VHI,AOML,UNKNOWN,North
2021-10-09T06:00:00Z,1633759200,2021,6,0,282.25,282.25,59.601,-32.345,999.9,9.23,-999.0,yes,yes,no,300234068442000,BD2VHI,AOML,UNKNOWN,North
2021-10-09T09:00:00Z,1633770000,2021,9,0,282.375,282.375,59.59,-32.322,1004.0,9.02,-999.0,yes,yes,no,300234068442000,BD2VHI,AOML,UNKNOWN,North
2021-10-09T12:00:00Z,1633780800,2021,12,0,282.5,282.5,59.566,-32.262,1008.3,8.96,-999.0,yes,yes,no,300234068442000,BD2VHI,AOML,UNKNOWN,North
2021-10-09T15:00:00Z,1633791600,2021,15,0,282.625,282.625,59.539,-32.207,1012.3,9.16,-999.0,yes,yes,no,300234068442000,BD2VHI,AOML,UNKNOWN,North
2021-10-09T18:00:00Z,1633802400,2021,18,0,282.75,282.75,59.521,-32.163,1015.8,9.2,-999.0,yes,yes,no,300234068442000,BD2VHI,AOML,UNKNOWN,North
2021-10-09T21:00:00Z,1633813200,2021,21,0,282.875,282.875,59.518,-32.144,1019.1,9.09,-999.0,yes,yes,no,300234068442000,BD2VHI,AOML,UNKNOWN,North
2021-10-10T00:00:00Z,1633824000,2021,0,0,283.0,283.0,59.514,-32.112,1021.4,9.35,-999.0,yes,yes,no,300234068442000,BD2VHI,AOML,UNKNOWN,North
2021-10-10T03:00:00Z,1633834800,2021,3,0,283.125,283.125,59.503,-32.08,1022.0,9.41,-999.0,yes,yes,no,300234068442000,BD2VHI,AOML,UNKNOWN,North
2021-10-10T06:00:00Z,1633845600,2021,6,0,283.25,283.25,59.5,-32.07,1022.1,9.38,-999.0,yes,yes,no,300234068442000,BD2VHI,AOML,UNKNOWN,North
2021-10-10T09:00:00Z,1633856400,2021,9,0,283.375,283.375,59.504,-32.093,1021.7,9.39,-999.0,yes,yes,no,300234068442000,BD2VHI,AOML,UNKNOWN,North
2021-10-10T12:00:00Z,1633867200,2021,12,0,283.5,283.5,59.513,-32.13,1021.0,9.47,-999.0,yes,yes,no,300234068442000,BD2VHI,AOML,UNKNOWN,North
2021-10-10T15:00:00Z,1633878000,2021,15,0,283.625,283.625,59.505,-32.167,1018.6,9.51,-999.0,yes,yes,no,300234068442000,BD2VHI,AOML,UNKNOWN,North
2021-10-10T18:00:00Z,1633888800,2021,18,0,283.75,283.75,59.493,-32.212,1017.1,9.15,-999.0,yes,yes,no,300234068442000,BD2VHI,AOML,UNKNOWN,North
2021-10-10T21:00:00Z,1633899600,2021,21,0,283.875,283.875,59.478,-32.275,1016.3,9.08,-999.0,yes,yes,no,300234068442000,BD2VHI,AOML,UNKNOWN,North
2021-10-11T00:00:00Z,1633910400,2021,0,0,284.0,284.0,59.459,-32.351,1015.6,8.98,-999.0,yes,yes,no,300234068442000,BD2VHI,AOML,UNKNOWN,North
2021-10-11T03:00:00Z,1633921200,2021,3,0,284.125,284.125,59.443,-32.399,1014.6,9.14,-999.0,yes,yes,no,300234068442000,BD2VHI,AOML,UNKNOWN,North
2021-10-11T06:00:00Z,1633932000,2021,6,0,284.25,284.25,59.426,-32.421,1013.9,9.4,-999.0,yes,yes,no,300234068442000,BD2VHI,AOML,UNKNOWN,North
2021-10-11T09:00:00Z,1633942800,2021,9,0,284.375,284.375,59.405,-32.451,1013.6,9.34,-999.0,yes,yes,no,300234068442000,BD2VHI,AOML,UNKNOWN,North
2021-10-11T12:00:00Z,1633953600,2021,12,0,284.5,284.5,59.397,-32.504,1013.3,9.34,-999.0,yes,yes,no,300234068442000,BD2VHI,AOML,UNKNOWN,North